Location: Fensholt
(55.9856°N, 10.0808°E)
Time: 19:56:45
(UTC+00:00)

STARLINK-26 - Pass Details

Date: 07 June 2020
Orbit: 428 x 433 km, 53.0° (Epoch: 05 July)

Event Time Altitude Azimuth Distance (km) Brightness Sun altitude
Exits shadow 01:24:25 - 242° (WSW) 1,893 5.9 -6.8°
Reaches altitude 10° 01:25:20 10° 238° (WSW) 1,530 5.4 -6.8°
Maximum altitude 01:28:36 43° 166° (SSE) 624 3.6 -6.5°
Drops below altitude 10° 01:31:53 10° 94° (E) 1,536 6.3 -6.3°
Sets 01:34:03 0° 88° (E) 2,406 7.4 -6.2°
